Location: Terra Rouge Observatory
(46.0000°N, 62.7500°W)
Time: 16:08:10
(UTC-03:00)

Daily predictions for brighter satellites

Satellite Brightness Start Highest point End
(mag) Time Altitude Azimuth Time Altitude Azimuth Time Altitude Azimuth
Meteor 2-15 Rocket 4.5 21:31:42 10° S 21:37:46 86° E 21:43:53 10° N
SAR-Lupe-4 3.9 21:35:49 10° S 21:39:22 69° WSW 21:42:58 10° NNW
Cosmos 1140 Rocket 3.8 21:38:03 10° SSW 21:43:13 75° WNW 21:48:24 10° NNE
Lacrosse 4 Rocket 3.2 21:39:48 10° WSW 21:43:49 40° NW 21:47:58 10° NNE
Cosmos 2333 Rocket 4.4 21:39:52 10° NW 21:44:06 22° W 21:48:20 10° SSW
Cosmos 1570 Rocket 4.1 21:42:54 10° NNW 21:48:15 86° WSW 21:53:31 10° SSE
SPOT 1/Viking Rocket 4.3 21:45:31 10° SE 21:50:14 38° ENE 21:55:00 10° N
USA 32 4.3 21:45:35 10° S 21:50:49 76° W 21:56:06 10° N
Cosmos 1802 Rocket 4.1 21:46:03 10° N 21:52:09 62° ENE 21:58:13 10° SSE
Cosmos 1242 Rocket 2.6 21:52:38 10° N 21:56:23 83° E 22:00:06 10° SSE
NOAA 11 4.2 21:51:01 10° SSE 21:56:27 87° ENE 22:01:55 10° NNW
Cosmos 1356 Rocket 3.5 21:55:40 10° S 21:59:52 67° E 22:04:10 10° NNE
Lacrosse 5 2.0 21:57:25 10° NW 22:02:31 73° NE 22:07:31 10° ESE
Cosmos 371 Rocket 4.1 21:58:12 10° N 22:02:45 39° ENE 22:07:04 11° SE
SPOT 5 3.1 21:58:48 10° SSE 22:03:35 65° ENE 22:08:39 10° N
Cosmos 1867 3.6 22:01:37 10° SSW 22:07:01 69° ESE 22:12:28 10° NE
Cosmos 1408 Rocket 3.7 22:03:26 10° S 22:07:38 55° E 22:11:53 10° NNE
Cosmos 1076 Rocket 3.5 22:04:33 10° S 22:08:55 90° SE 22:13:19 10° N
USA 234 3.5 22:06:40 10° ENE 22:12:58 48° SE 22:19:14 10° SSW
EO 1 Delta rocket 4.1 22:09:22 11° SSE 22:13:48 53° ENE 22:18:21 10° N
Cosmos 2297 Rocket 3.8 22:10:35 10° WSW 22:15:52 39° NW 22:21:11 10° NNE
Meteor 1-21 Rocket 4.3 22:12:25 10° S 22:18:07 88° W 22:23:44 10° N
RESURS DK-1 2.4 22:14:33 10° NNW 22:18:45 75° ENE 22:22:11 15° SE
Meteor 2-2 Rocket 4.4 22:13:23 10° N 22:19:08 66° ENE 22:24:31 12° SSE
Cosmos 468 Rocket 4.0 22:13:59 10° NNW 22:19:10 81° ENE 22:23:43 13° SSE
Cosmos 2221 3.8 22:15:05 10° NNW 22:19:12 40° W 22:23:18 10° SSW
MetOp-B 4.4 22:15:37 10° S 22:20:56 68° WSW 22:26:19 10° NNW
Abrixas rocket 2.2 22:18:00 10° WNW 22:21:15 83° NNE 22:24:11 12° ESE
Cosmos 2016 Rocket 4.0 22:15:15 10° N 22:21:35 85° E 22:27:46 10° S
Tiangong 1 1.2 22:19:23 10° WSW 22:22:03 41° S 22:24:00 16° ESE
Meteor 2-10 4.4 22:20:38 10° N 22:26:11 63° ENE 22:31:03 14° SSE
Cosmos 2263 Rocket 3.3 22:22:49 13° SSE 22:26:24 25° ESE 22:30:50 10° NE
Cosmos 1500 Rocket 4.4 22:24:33 15° SSE 22:27:43 33° E 22:31:44 10° NNE
ERS-1 Rocket 4.0 22:23:11 10° S 22:27:58 44° W 22:32:47 10° NNW
Cosmos 2151 4.1 22:25:58 15° SE 22:28:36 28° E 22:32:17 10° NNE
Landsat 7 4.1 22:25:19 15° SE 22:29:11 56° ENE 22:33:52 10° N
SL-14 R/B 3.5 22:26:42 13° SSE 22:30:04 50° E 22:33:54 10° NNE
Cosmos 1626 3.8 22:30:33 15° ESE 22:32:05 19° E 22:34:48 10° NE
Cosmos 1300 2.7 22:28:33 10° N 22:32:24 72° E 22:35:17 17° SSE
ATLAS 5 CENTAUR R/B 2.5 22:28:00 10° SW 22:32:40 59° NW 22:37:49 10° NNE
H-2A R/B 2.2 22:29:37 13° SSE 22:34:25 86° ENE 22:39:53 10° NNW
Cosmos 1726 2.1 22:31:27 10° NNW 22:35:09 79° W 22:38:08 15° S
Cosmos 1328 3.9 22:33:46 14° S 22:37:11 60° E 22:41:11 10° NNE
CARTOSAT-1 4.1 22:35:22 17° SE 22:38:21 46° ENE 22:42:30 10° N
Cosmos 1766 Rocket 4.1 22:39:47 10° SSW 22:44:02 57° WNW 22:48:21 10° N
Terra 2.1 22:40:45 18° SE 22:44:08 55° ENE 22:48:48 10° N
Cosmos 2233 Rocket 4.2 22:40:19 10° N 22:46:30 60° ENE 22:51:03 18° SSE
Cosmos 1328 Rocket 3.6 22:44:10 10° NNW 22:48:31 78° W 22:51:48 17° S
Cosmos 1603 4.0 22:43:58 10° NNW 22:49:33 60° WSW 22:53:56 16° S
USA 245 4.4 22:46:50 11° SSW 22:49:49 37° W 22:53:44 10° NNW
Cosmos 332 Rocket 4.1 22:47:56 10° NNW 22:52:47 62° WSW 22:56:25 17° S
Cosmos 540 Rocket 4.4 22:48:03 10° N 22:52:50 36° ENE 22:56:16 17° ESE
Cosmos 1515 Rocket 3.5 22:48:51 10° N 22:53:13 85° E 22:56:08 20° S
Cosmos 2228 Rocket 3.3 22:51:29 10° NNW 22:56:04 73° W 22:59:31 17° S
Cosmos 1151 Rocket 3.0 22:53:45 10° N 22:58:10 75° E 23:00:51 23° SSE
H-2A R/B 2.2 22:57:03 23° SE 22:59:37 60° ENE 23:03:48 10° N
Cosmos 1743 Rocket 3.5 22:56:32 14° S 23:00:16 84° W 23:04:37 10° N
SL-16 R/B 4.5 23:02:23 10° WNW 23:05:47 16° W 23:09:11 10° SW
Cosmos 1943 3.2 23:00:10 10° NNW 23:05:51 86° WSW 23:09:32 23° SSE
Cosmos 1455 3.0 23:02:24 10° N 23:06:04 39° ENE 23:07:41 26° SE
Cosmos 304 Rocket 4.2 23:01:58 10° NNW 23:06:40 50° ENE 23:09:24 23° SE
ARGOS 4.5 23:01:57 10° SSW 23:06:52 35° W 23:11:48 10° NNW
H-2A ROCKET BODY 4.3 23:02:13 10° SSW 23:07:01 22° SE 23:19:40 10° ESE
IGS 5A 3.4 23:04:43 25° SSE 23:07:07 87° ENE 23:11:19 10° NNW
DMSP B5D2-2 4.0 23:02:53 10° NNE 23:08:09 89° ESE 23:12:45 14° SSW
Meteor 2-12 Rocket 4.4 23:03:09 10° N 23:09:15 75° E 23:13:16 22° SSE
Spot 4 4.2 23:08:07 23° SE 23:10:55 53° ENE 23:15:40 10° N
Cosmos 1356 3.3 23:11:02 28° S 23:12:45 78° E 23:16:16 10° NNE
ERBS 2.7 23:09:35 10° WNW 23:12:52 49° SW 23:13:54 34° S
Cosmos 1354 Rocket 4.4 23:11:02 23° SSE 23:13:52 45° ESE 23:18:51 10° NNE
CZ-4C R/B 4.3 23:14:10 24° SE 23:16:13 42° ENE 23:20:23 10° N
SME Rocket 3.8 23:15:18 25° ESE 23:17:13 43° ENE 23:21:43 10° N
Cosmos 1486 Rocket 4.1 23:20:44 10° SSW 23:26:00 77° WNW 23:31:21 10° NNE
SL-19 R/B 4.0 23:28:49 41° E 23:29:14 45° ENE 23:32:02 10° N
Cosmos 841 Rocket 3.8 23:24:24 10° NNW 23:29:34 58° WSW 23:32:30 25° S
Cosmos 2285 Rocket 4.0 23:23:33 10° NNW 23:29:56 83° ENE 23:33:43 26° SSE
Cosmos 1763 Rocket 4.3 23:27:16 10° NW 23:32:04 42° WSW 23:35:00 21° SSW
Cosmos 1703 3.3 23:31:38 29° SSW 23:33:37 81° W 23:37:38 10° N
CZ-2C R/B 3.9 23:31:05 10° NE 23:35:18 24° E 23:36:50 21° ESE
Cosmos 2034 Rocket 4.5 23:30:48 10° N 23:36:59 50° ENE 23:40:24 26° SE
PSLV R/B 3.6 23:43:44 42° SW 23:44:06 46° W 23:46:53 10° NNW
Cosmos 2058 3.6 23:41:53 20° SSW 23:44:34 50° WNW 23:48:42 10° N
Lacrosse 5 3.3 23:41:03 10° WNW 23:45:03 24° SW 23:46:42 20° SSW
Sich 1 3.4 23:45:24 36° SE 23:46:33 45° E 23:50:39 10° NNE
DELTA 2 DEB (DPAF) 4.1 23:44:56 36° SSE 23:46:47 86° WSW 23:51:16 10° NNW
deb Chang Zheng 4 3.8 23:42:44 10° N 23:47:06 70° WNW 23:49:38 24° SSW
ALOS 2 3.8 23:50:01 23° ESE 23:51:48 32° ENE 23:55:41 10° N
Cosmos 2278 Rocket 4.3 23:52:47 10° ESE 23:53:35 11° E 23:54:53 10° E
Cosmos 1707 Rocket 3.5 23:50:38 10° N 23:55:08 84° E 23:56:43 40° SSE
Tiangong 1 3.5 23:54:53 10° WSW 23:55:09 12° WSW 23:55:09 12° WSW
